This demonstration page uses our WeatherBlox Daily Observations layout. Learn more.

Hourly Observations for March 22, 2018

Temp ( °F °C ) Dew Point ( °F °C ) Humidity (%) Winds ( mph kmh ) Pressure ( in mb ) Visibility ( mi km ) Precip ( " mm )
12:15 am 00:15 Clear 43 6 35 1.4 73 73 S 12 19 30.12 1020 10 16.0934 0 0
12:35 am 00:35 Clear 43 5.9 34 1.2 72 72 S 12 19 30.12 1020 10 16.0934 0 0
12:55 am 00:55 Clear 43 5.9 34 1.2 72 72 S 12 19 30.12 1020 10 16.0934 0 0
1:15 am 01:15 Clear 42 5.8 34 1.2 73 73 SSW 12 19 30.12 1020 10 16.0934 0 0
1:35 am 01:35 Clear 42 5.3 34 1.1 75 75 SSW 13 20 30.12 1020 10 16.0934 0 0
1:55 am 01:55 Clear 41 4.9 34 1 76 76 SSW 9 15 30.15 1021 10 16.0934 0 0
2:15 am 02:15 Partly Cloudy 40 4.5 33 0.8 77 77 SSW 9 15 30.15 1021 10 16.0934 0 0
2:35 am 02:35 Partly Cloudy 40 4.5 33 0.8 77 77 SSW 10 17 30.15 1021 10 16.0934 0 0
2:55 am 02:55 Partly Cloudy 40 4.3 33 0.7 78 78 SSW 10 17 30.12 1020 10 16.0934 0 0
3:15 am 03:15 Partly Cloudy 40 4.3 33 0.8 78 78 SSW 10 17 30.15 1021 10 16.0934 0 0
3:35 am 03:35 Partly Cloudy 39 4 33 0.6 79 79 SSW 7 11 30.15 1021 10 16.0934 0 0
3:55 am 03:55 Clear 39 3.7 33 0.5 80 80 SSW 7 11 30.15 1021 10 16.0934 0 0
4:15 am 04:15 Clear 39 4 33 0.5 78 78 SSW 7 11 30.15 1021 10 16.0934 0 0
4:35 am 04:35 Mostly Cloudy 38 3.3 33 0.3 81 81 SSW 6 9 30.18 1022 10 16.0934 0 0
4:55 am 04:55 Mostly Cloudy 37 3 33 0.3 83 83 SSW 5 7 30.18 1022 10 16.0934 0 0
5:15 am 05:15 Mostly Cloudy 37 2.7 32 0 83 83 SW 5 7 30.18 1022 10 16.0934 0 0
5:35 am 05:35 Partly Cloudy 37 2.7 32 0.2 84 84 SSW 6 9 30.18 1022 10 16.0934 0 0
5:55 am 05:55 Clear 36 2.1 31 -0.4 84 84 Calm 30.18 1022 10 16.0934 0 0
6:15 am 06:15 Clear 33 0.6 31 -0.3 94 94 Calm 30.18 1022 10 16.0934 0 0
6:35 am 06:35 Clear 34 1.2 32 -0.1 91 91 Calm 30.18 1022 10 16.0934 0 0
6:55 am 06:55 Clear 32 0.2 31 -0.7 94 94 ESE 3 6 30.21 1023 10 16.0934 0 0
7:15 am 07:15 Clear 32 0 31 -0.4 97 97 SE 6 9 30.21 1023 10 16.0934 0 0
7:35 am 07:35 Clear 33 0.8 32 -0.1 94 94 SSE 7 11 30.18 1022 10 16.0934 0 0
7:55 am 07:55 Sunny 32 0.2 31 -0.4 96 96 S 6 9 30.21 1023 10 16.0934 0 0
8:15 am 08:15 Sunny 33 0.5 32 -0.2 95 95 SSE 5 7 30.24 1024 10 16.0934 0 0
8:35 am 08:35 Sunny 35 1.5 32 0 90 90 S 5 7 30.18 1022 10 16.0934 0 0
8:55 am 08:55 Sunny 37 2.9 34 1 87 87 SSE 8 13 30.18 1022 10 16.0934 0 0
9:15 am 09:15 Sunny 40 4.3 35 1.8 84 84 S 7 11 30.15 1021 10 16.0934 0 0
9:35 am 09:35 Sunny 42 5.5 36 2.3 80 80 S 8 13 30.15 1021 10 16.0934 0 0
9:55 am 09:55 Sunny 45 7.2 37 2.9 74 74 S 9 15 30.12 1020 10 16.0934 0 0
10:15 am 10:15 Sunny 47 8.3 37 2.7 68 68 S 9 15 30.12 1020 10 16.0934 0 0
10:35 am 10:35 Sunny 49 9.3 38 3.2 66 66 S 9 15 30.12 1020 10 16.0934 0 0
10:55 am 10:55 Sunny 51 10.7 37 2.8 58 58 S 7 11 30.09 1019 10 16.0934 0 0
11:15 am 11:15 Sunny 53 11.6 37 2.7 55 55 S 9 15 30.09 1019 10 16.0934 0 0
11:35 am 11:35 Sunny 55 12.5 37 2.8 52 52 S 13 20 30.09 1019 10 16.0934 0 0
11:55 am 11:55 Sunny 56 13.1 37 2.8 50 50 SSW 9 15 30.09 1019 10 16.0934 0 0
12:15 pm 12:15 Sunny 57 14 37 2.7 47 47 SSW 3 6 30.06 1018 10 16.0934 0 0
12:35 pm 12:35 Sunny 58 14.2 37 2.8 46 46 SW 5 7 30.06 1018 10 16.0934 0 0
12:55 pm 12:55 Sunny 59 14.9 37 2.7 44 44 Calm 30.06 1018 10 16.0934 0 0
1:15 pm 13:15 Sunny 59 15.2 36 2.1 41 41 SW 7 11 30.03 1017 10 16.0934 0 0
1:35 pm 13:35 Sunny 61 16.2 37 2.9 41 41 Calm 30.03 1017 10 16.0934 0 0
1:55 pm 13:55 Sunny 62 16.5 37 2.7 40 40 Calm 30.03 1017 10 16.0934 0 0
2:15 pm 14:15 Sunny 63 17.1 37 3 39 39 SSW 6 9 30 1016 10 16.0934 0 0
2:35 pm 14:35 Sunny 64 17.5 37 2.9 38 38 S 3 6 30 1016 10 16.0934 0 0
2:55 pm 14:55 Sunny 65 18.1 38 3.3 38 38 SE 6 9 30 1016 10 16.0934 0 0
3:15 pm 15:15 Sunny 65 18.5 38 3.4 37 37 S 5 7 29.97 1015 10 16.0934 0 0
3:35 pm 15:35 Sunny 66 19 38 3.4 36 36 SSW 5 7 29.97 1015 10 16.0934 0 0
3:55 pm 15:55 Sunny 67 19.2 38 3.5 35 35 S 3 6 29.97 1015 10 16.0934 0 0
4:15 pm 16:15 Sunny 67 19.3 38 3.2 35 35 E 3 6 29.97 1015 10 16.0934 0 0
4:35 pm 16:35 Sunny 67 19.5 38 3.6 35 35 ESE 3 6 29.97 1015 10 16.0934 0 0
4:55 pm 16:55 Sunny 67 19.7 38 3.6 35 35 S 5 7 29.97 1015 10 16.0934 0 0
5:15 pm 17:15 Sunny 68 19.8 39 3.8 35 35 SSE 6 9 29.94 1014 10 16.0934 0 0
5:35 pm 17:35 Sunny 68 20 39 4 35 35 SE 6 9 29.91 1013 10 16.0934 0 0
5:55 pm 17:55 Sunny 68 20 40 4.4 36 36 E 6 9 29.94 1014 10 16.0934 0 0
6:15 pm 18:15 Sunny 68 20 40 4.4 36 36 ESE 5 7 29.94 1014 10 16.0934 0 0
6:35 pm 18:35 Sunny 67 19.7 40 4.6 37 37 SE 8 13 29.97 1015 10 16.0934 0 0
6:55 pm 18:55 Sunny 66 18.9 41 4.9 40 40 ESE 7 11 29.94 1014 10 16.0934 0 0
7:15 pm 19:15 Sunny 62 16.5 42 5.6 49 49 SE 6 9 29.97 1015 10 16.0934 0 0
7:35 pm 19:35 Sunny 58 14.7 46 7.6 63 63 ESE 6 9 30 1016 10 16.0934 0 0
7:55 pm 19:55 Clear 57 14.1 44 6.4 60 60 E 7 11 30 1016 10 16.0934 0 0
8:15 pm 20:15 Clear 56 13.5 43 6 61 61 E 9 15 30 1016 10 16.0934 0 0
8:35 pm 20:35 Clear 54 12 43 5.9 67 67 E 7 11 30.03 1017 10 16.0934 0 0
8:55 pm 20:55 Clear 52 11.3 42 5.5 68 68 E 8 13 30.06 1018 10 16.0934 0 0
9:15 pm 21:15 Clear 53 11.4 42 5.5 67 67 E 7 11 30.06 1018 10 16.0934 0 0
9:35 pm 21:35 Clear 53 11.4 41 5.2 66 66 E 9 15 30.06 1018 10 16.0934 0 0
9:55 pm 21:55 Clear 51 10.6 42 5.5 71 71 E 7 11 30.06 1018 10 16.0934 0 0
10:15 pm 22:15 Clear 53 11.8 41 5.1 64 64 E 9 15 30.03 1017 10 16.0934 0 0
10:35 pm 22:35 Clear 50 10.2 42 5.5 73 73 ENE 10 17 30.03 1017 10 16.0934 0 0
10:55 pm 22:55 Clear 50 9.9 42 5.4 74 74 ENE 9 15 30.03 1017 10 16.0934 0 0
11:15 pm 23:15 Clear 50 9.9 41 5.2 73 73 E 9 15 30.03 1017 10 16.0934 0 0
11:35 pm 23:35 Clear 50 9.9 41 5.2 73 73 E 7 11 30.03 1017 10 16.0934 0 0
11:55 pm 23:55 Clear 50 10 41 5 71 71 E 8 13 30.03 1017 10 16.0934 0 0

Powered by AerisWeather